Find Nanchang hangkong 1

NORAD ID: 64050 Int'l Des: 2025-103 Owner: NCHU/CTYK Country: CN operational
LEOCIRCULARRETROGRADESSO

リアルタイム位置

3D地球を読み込み中...

Nanchang hangkong 1について

説明を読み込み中...

次回通過

Passes for default location (London). Set your location on the main map for personalized predictions.

高度履歴

Loading altitude history...

軌道要素

1 64050U 25103C 26105.68815749 .00000278 00000-0 16155-4 0 9997
2 64050 97.3781 178.7362 0003841 48.2428 311.9135 15.19630354 50577
Epoch: Apr 15, 2026 • Age: 45 hours

現在のステータス

高度 522.3 km
速度 7.60 km/s
衛星直下点 -33.64°S, 55.58°W
打ち上げ日 May 17, 2025
運用期間 0.9 years
タイプ other

技術仕様

分類 Payload
質量 50.00 kg
乾燥質量 50.00 kg
総質量 50.00 kg
長さ 0.50 m
直径 0.30 m
スパン 1.00 m
形状 Box + 2 pan
製造者 CTYK
バスタイプ TY
フェーズステータス In Orbit
所有者/国 NCHU/CTYK/CN

Most Searched